DMC3-FM2

Last updated on Sun Jun 21 2026 00:02:57 GMT+0000 (Coordinated Universal Time)

1 40716U 15032B 26171.52745429 .00000826 00000+0 10099-3 0 9991 2 40716 97.6508 38.1467 0007460 55.7548 304.4373 14.85748734590408
UTC large
Height (km)
Speed (km/s)
/
Latitude / Longitude
Inclination (degrees)
Orbital Period (minutes)
Azimuth
Elevation
Range (km)
Doppler Factor

Next 0 passes for location: London (51.5072 / 0.1276)

Sorry there are no passes over London.
DMC3-FM2